Regional Weather Roundup
Issued by NWS Jackson, KY

Home | Current Version | Previous Version | Text Only | Print | Product List | Glossary On
Versions: 1 2 3 4 5 6 7 8 9 10 11 12 13 14 15 16 17 18 19 20 21 22 23 24 25 26 27
000
ASUS43 KJKL 291910
RWRJKL

EAST KENTUCKY HOURLY WEATHER ROUNDUP
NATIONAL WEATHER SERVICE JACKSON KY
300 PM EDT MON MAY 29 2017

NOTE: "FAIR" INDICATES FEW OR NO CLOUDS BELOW 12,000 FEET WITH
NO SIGNIFICANT WEATHER AND/OR OBSTRUCTIONS TO VISIBILITY.

* THESE REPORTS ARE NOT UNDER NWS QUALITY CONTROL AND MAY NOT
  REPORT WEATHER SUCH AS PRECIPITATION AND FOG.

KYZ079-080-083-085-087-088-110-112-115-119-120-292000
...EASTERN KENTUCKY...

CITY           SKY/WX    TMP DP  RH WIND       PRES   REMARKS
JACKSON        CLOUDY    76  59  55 VRB6      30.03S
LONDON         PTSUNNY   75  57  53 S10       30.04S
SOMERSET*      PTSUNNY   73  55  53 SW6       30.04S
MONTICELLO*    MOSUNNY   78  63  59 E7G20     30.04F
WILLIAMSBURG*  MOCLDY    75  64  69 SW3       30.04F
MIDDLESBORO*   CLOUDY    75  62  63 SE3       30.03F
HARLAN APT*    CLOUDY    72  61  68 CALM      30.06S
PIKE CO APT*     N/A     72  59  63 S3        30.03F
BIG SANDY APT* CLOUDY    76  59  54 S6        30.02S
MOREHEAD APT*  MOCLDY    77  59  53 S8G15     30.01S
ASHLAND*       PTSUNNY   81  61  50 SW7       29.96S
$$

KYZ035-036-041-042-044-050-067-078-099-292000
...CENTRAL KENTUCKY...

CITY           SKY/WX    TMP DP  RH WIND       PRES   REMARKS
MT STERLING*   MOSUNNY   79  57  47 W6        30.01S
FLEMING/MASON* PTSUNNY   79  57  46 W12       29.99S
DANVILLE*      PTSUNNY   79  55  44 SW10      30.02S
LEXINGTON      MOSUNNY   81  56  42 SW8       30.00R
FRANKFORT      MOSUNNY   82  56  40 SW8       29.97S
LOUISVILLE     MOSUNNY   83  55  38 W12G25    29.95F
LEBANON*         N/A     81  57  44 SW9       30.00S
GLASGOW*       PTSUNNY   82  57  43 SW7       30.00F
BOWLING GREEN  PTSUNNY   81  57  43 SW12      29.99F
$$

KYZ091>093-OHZ055-061-077-WVZ005-015-034-035-042-292000
...SOUTHERN OHIO/WEST VIRGINIA...

CITY           SKY/WX    TMP DP  RH WIND       PRES   REMARKS
COVINGTON      PTSUNNY   80  53  39 W12G18    29.95S
COLUMBUS       PTSUNNY   80  51  36 SW16G23   29.91S
DAYTON         MOSUNNY   75  51  43 SW17      29.93S
WILMINGTON     MOSUNNY   76  57  51 SW16G22   29.94S
HUNTINGTON     CLOUDY    78  59  51 VRB3      29.98S
CHARLESTON     PTSUNNY   77  57  50 SW8       29.99F
PINEVILLE*     CLOUDY    75  57  53 MISG      30.10S
BECKLEY        CLOUDY    72  51  47 W7        30.07S
BLUEFIELD      PTSUNNY   68  55  63 CALM      30.09F
LOGAN CO APT*    N/A     73  52  46 CALM      30.02F
$$

VAZ002-007-008-TNZ017-027-036-066-071-292000
...SOUTHWEST VIRGINIA/EAST TENNESSEE...

CITY           SKY/WX    TMP DP  RH WIND       PRES   REMARKS
WISE*          CLOUDY    70  59  68 CALM      30.11S
JONESVILLE*      N/A     75  63  64 W6        30.07S
ABINGDON*      CLOUDY    74  61  64 W10       30.07S
BRISTOL        CLOUDY    75  62  64 W9        30.05F
MORRISTOWN*    MOCLDY    75  64  69 SW10      30.04F
SEVIERVILLE*   CLEAR     72  64  78 SW6       30.04F
KNOXVILLE      LGT RAIN  74  66  76 SW9       30.03F
LAFOLLETTE*    PTCLDY    73  66  78 S7        30.06F
OAK RIDGE      CLOUDY    77  64  64 VRB3      30.04F
CROSSVILLE     MOSUNNY   71  60  68 S6        30.07F
NASHVILLE      PTSUNNY   80  62  54 S7        30.02F
$$

...KEY TO REMARKS...
VSB - VISIBILITY IN MILES
WCI - WIND CHILL INDEX
HX  - HEAT INDEX

$$




USA.gov is the U.S. government's official web portal to all federal, state and local government web resources and services.